Time,TemperatureF,DewpointF,PressureIn,WindDirection,WindDirectionDegrees,WindSpeedMPH,WindSpeedGustMPH,Humidity,HourlyPrecipIn,Conditions,Clouds,dailyrainin,SoftwareType,DateUTC
2013-02-26 00:01:00,41.0,37.0,30.12,SSW,212,1.0,2.0,84,0.00,,,0.00,,2013-02-26 05:01:00,
2013-02-26 00:12:00,41.0,37.0,30.11,ESE,121,1.0,5.0,86,0.00,,,0.00,,2013-02-26 05:12:00,
2013-02-26 00:22:00,41.0,37.0,30.11,ESE,121,1.0,5.0,86,0.00,,,0.00,,2013-02-26 05:22:00,
2013-02-26 00:32:00,41.0,37.0,30.10,NE,41,1.0,5.0,87,0.00,,,0.00,,2013-02-26 05:32:00,
2013-02-26 00:43:00,41.0,37.0,30.10,NE,41,1.0,5.0,87,0.00,,,0.00,,2013-02-26 05:43:00,
2013-02-26 00:52:00,41.0,38.0,30.09,SE,136,1.0,4.0,88,0.00,,,0.00,,2013-02-26 05:52:00,
2013-02-26 01:02:00,41.0,38.0,30.09,SSE,165,1.0,3.0,89,0.00,,,0.00,,2013-02-26 06:02:00,
2013-02-26 01:11:00,41.0,38.0,30.09,SSE,165,1.0,3.0,89,0.00,,,0.00,,2013-02-26 06:11:00,
2013-02-26 01:21:00,41.0,38.0,30.09,South,191,1.0,4.0,89,0.00,,,0.00,,2013-02-26 06:21:00,
2013-02-26 01:32:00,41.0,38.0,30.09,ENE,62,0.0,3.0,90,0.00,,,0.00,,2013-02-26 06:32:00,
2013-02-26 01:42:00,41.0,38.0,30.09,ENE,62,0.0,3.0,90,0.00,,,0.00,,2013-02-26 06:42:00,
2013-02-26 01:52:00,42.0,39.0,30.10,SSW,211,1.0,2.0,90,0.00,,,0.00,,2013-02-26 06:52:00,
2013-02-26 02:01:00,42.0,39.0,30.10,ESE,121,1.0,2.0,90,0.00,,,0.00,,2013-02-26 07:01:00,
2013-02-26 02:11:00,42.0,39.0,30.10,ESE,121,1.0,2.0,90,0.00,,,0.00,,2013-02-26 07:11:00,
2013-02-26 02:22:00,43.0,40.0,30.09,NE,47,1.0,5.0,90,0.00,,,0.00,,2013-02-26 07:22:00,
2013-02-26 02:32:00,43.0,40.0,30.08,West,264,1.0,3.0,90,0.00,,,0.00,,2013-02-26 07:32:00,
2013-02-26 02:42:00,43.0,40.0,30.08,West,264,1.0,3.0,90,0.00,,,0.00,,2013-02-26 07:42:00,
2013-02-26 02:52:00,43.0,40.0,30.08,ESE,108,1.0,2.0,90,0.00,,,0.00,,2013-02-26 07:52:00,
2013-02-26 03:02:00,43.0,40.0,30.09,North,11,1.0,2.0,90,0.00,,,0.00,,2013-02-26 08:02:00,
2013-02-26 03:11:00,44.0,41.0,30.07,SSW,200,0.0,3.0,90,0.00,,,0.00,,2013-02-26 08:11:00,
2013-02-26 03:21:00,44.0,41.0,30.07,SSW,200,0.0,3.0,90,0.00,,,0.00,,2013-02-26 08:21:00,
2013-02-26 03:32:00,44.0,41.0,30.07,SE,142,1.0,4.0,90,0.00,,,0.00,,2013-02-26 08:32:00,
2013-02-26 03:42:00,44.0,41.0,30.07,SE,142,1.0,4.0,90,0.00,,,0.00,,2013-02-26 08:42:00,
2013-02-26 03:52:00,44.0,41.0,30.06,SSE,150,1.0,4.0,90,0.00,,,0.00,,2013-02-26 08:52:00,
2013-02-26 04:02:00,44.0,41.0,30.05,SW,215,1.0,5.0,90,0.00,,,0.00,,2013-02-26 09:02:00,
2013-02-26 04:11:00,44.0,41.0,30.05,SW,215,1.0,5.0,90,0.00,,,0.00,,2013-02-26 09:11:00,
2013-02-26 04:21:00,44.0,42.0,30.03,SE,124,1.0,3.0,91,0.00,,,0.00,,2013-02-26 09:21:00,
2013-02-26 04:32:00,44.0,42.0,30.03,SSE,156,1.0,3.0,91,0.00,,,0.00,,2013-02-26 09:32:00,
2013-02-26 04:43:00,44.0,42.0,30.03,SSE,156,1.0,3.0,91,0.00,,,0.00,,2013-02-26 09:43:00,
2013-02-26 04:52:00,45.0,43.0,30.03,ESE,104,1.0,3.0,91,0.00,,,0.00,,2013-02-26 09:52:00,
2013-02-26 05:01:00,45.0,43.0,30.03,ENE,71,1.0,4.0,91,0.00,,,0.00,,2013-02-26 10:01:00,
2013-02-26 05:11:00,45.0,43.0,30.03,ENE,71,1.0,4.0,91,0.00,,,0.00,,2013-02-26 10:11:00,
2013-02-26 05:21:00,45.0,43.0,30.04,WSW,239,0.0,3.0,91,0.00,,,0.00,,2013-02-26 10:21:00,
2013-02-26 05:31:00,45.0,43.0,30.05,ENE,78,1.0,4.0,91,0.00,,,0.00,,2013-02-26 10:31:00,
2013-02-26 05:42:00,45.0,43.0,30.05,ENE,78,1.0,4.0,91,0.00,,,0.00,,2013-02-26 10:42:00,
2013-02-26 05:52:00,46.0,44.0,30.04,SE,129,1.0,4.0,91,0.00,,,0.00,,2013-02-26 10:52:00,
2013-02-26 06:01:00,46.0,43.0,30.04,SE,128,0.0,2.0,90,0.00,,,0.00,,2013-02-26 11:01:00,
2013-02-26 06:12:00,46.0,43.0,30.04,SE,128,0.0,2.0,90,0.00,,,0.00,,2013-02-26 11:12:00,
2013-02-26 06:22:00,47.0,44.0,30.02,East,86,1.0,4.0,90,0.00,,,0.00,,2013-02-26 11:22:00,
2013-02-26 06:32:00,47.0,44.0,30.02,SW,214,1.0,4.0,90,0.00,,,0.00,,2013-02-26 11:32:00,
2013-02-26 06:42:00,47.0,44.0,30.01,SE,132,1.0,2.0,90,0.00,,,0.00,,2013-02-26 11:42:00,
2013-02-26 06:53:00,47.0,44.0,30.01,SE,132,1.0,2.0,90,0.00,,,0.00,,2013-02-26 11:53:00,
2013-02-26 07:01:00,47.0,44.0,30.01,East,98,1.0,4.0,90,0.00,,,0.00,,2013-02-26 12:01:00,
2013-02-26 07:11:00,47.0,44.0,30.01,East,98,1.0,4.0,90,0.00,,,0.00,,2013-02-26 12:11:00,
2013-02-26 07:22:00,48.0,45.0,30.01,ESE,121,1.0,5.0,90,0.00,,,0.00,,2013-02-26 12:22:00,
2013-02-26 07:32:00,48.0,45.0,30.01,ESE,117,1.0,3.0,91,0.00,,,0.00,,2013-02-26 12:32:00,
2013-02-26 07:42:00,48.0,45.0,30.01,ESE,117,1.0,3.0,91,0.00,,,0.00,,2013-02-26 12:42:00,
2013-02-26 07:53:00,49.0,46.0,30.01,East,79,0.0,2.0,91,0.01,,,0.01,,2013-02-26 12:53:00,
2013-02-26 08:02:00,49.0,47.0,30.02,WSW,248,0.0,1.0,93,0.02,,,0.02,,2013-02-26 13:02:00,
2013-02-26 08:11:00,49.0,48.0,30.03,SW,214,0.0,2.0,95,0.04,,,0.04,,2013-02-26 13:11:00,
2013-02-26 08:22:00,49.0,48.0,30.03,SW,214,0.0,2.0,95,0.04,,,0.04,,2013-02-26 13:22:00,
2013-02-26 08:32:00,49.0,48.0,30.03,SE,134,0.0,2.0,95,0.05,,,0.05,,2013-02-26 13:32:00,
2013-02-26 08:42:00,49.0,48.0,30.03,SE,134,0.0,2.0,95,0.05,,,0.05,,2013-02-26 13:42:00,
2013-02-26 08:52:00,49.0,48.0,30.02,ESE,108,1.0,5.0,96,0.05,,,0.06,,2013-02-26 13:52:00,
2013-02-26 09:01:00,50.0,49.0,30.02,SE,146,1.0,4.0,96,0.06,,,0.08,,2013-02-26 14:01:00,
2013-02-26 09:11:00,50.0,49.0,30.02,SE,146,1.0,4.0,96,0.06,,,0.08,,2013-02-26 14:11:00,
2013-02-26 09:21:00,50.0,49.0,30.01,ENE,72,1.0,3.0,97,0.06,,,0.10,,2013-02-26 14:21:00,
2013-02-26 09:32:00,51.0,50.0,30.01,ESE,102,1.0,6.0,97,0.06,,,0.11,,2013-02-26 14:32:00,
2013-02-26 09:42:00,51.0,50.0,30.01,ESE,102,1.0,6.0,97,0.06,,,0.11,,2013-02-26 14:42:00,
2013-02-26 09:52:00,51.0,50.0,30.00,East,82,1.0,2.0,98,0.06,,,0.13,,2013-02-26 14:52:00,
2013-02-26 10:02:00,52.0,51.0,29.99,SE,143,2.0,3.0,98,0.06,,,0.14,,2013-02-26 15:02:00,
2013-02-26 10:11:00,52.0,51.0,29.99,SE,143,2.0,3.0,98,0.06,,,0.14,,2013-02-26 15:11:00,
2013-02-26 10:22:00,54.0,54.0,29.97,North,7,2.0,4.0,99,0.07,,,0.17,,2013-02-26 15:22:00,
2013-02-26 10:32:00,55.0,55.0,29.96,ENE,64,5.0,8.0,99,0.07,,,0.18,,2013-02-26 15:32:00,
2013-02-26 10:42:00,55.0,55.0,29.96,ENE,64,5.0,8.0,99,0.07,,,0.18,,2013-02-26 15:42:00,
2013-02-26 10:52:00,56.0,56.0,29.94,SSE,159,4.0,9.0,99,0.07,,,0.19,,2013-02-26 15:52:00,
2013-02-26 11:01:00,57.0,56.0,29.94,SE,126,5.0,12.0,98,0.06,,,0.20,,2013-02-26 16:01:00,
2013-02-26 11:11:00,57.0,56.0,29.94,SE,126,5.0,12.0,98,0.06,,,0.20,,2013-02-26 16:11:00,
2013-02-26 11:22:00,57.0,56.0,29.91,ENE,63,4.0,11.0,98,0.05,,,0.22,,2013-02-26 16:22:00,
2013-02-26 11:32:00,58.0,57.0,29.91,SSE,156,6.0,12.0,98,0.03,,,0.22,,2013-02-26 16:32:00,
2013-02-26 11:42:00,58.0,57.0,29.91,SSE,156,6.0,12.0,98,0.03,,,0.22,,2013-02-26 16:42:00,
2013-02-26 11:52:00,58.0,57.0,29.91,SE,134,3.0,9.0,98,0.03,,,0.23,,2013-02-26 16:52:00,
2013-02-26 12:01:00,58.0,57.0,29.89,NE,46,4.0,10.0,98,0.05,,,0.25,,2013-02-26 17:01:00,
2013-02-26 12:11:00,59.0,58.0,29.89,East,89,4.0,8.0,98,0.07,,,0.29,,2013-02-26 17:11:00,
2013-02-26 12:22:00,59.0,58.0,29.89,East,89,4.0,8.0,98,0.07,,,0.29,,2013-02-26 17:22:00,
2013-02-26 12:32:00,59.0,58.0,29.88,NE,54,6.0,12.0,98,0.11,,,0.33,,2013-02-26 17:32:00,
2013-02-26 12:42:00,59.0,58.0,29.88,NE,54,6.0,12.0,98,0.11,,,0.33,,2013-02-26 17:42:00,
2013-02-26 12:52:00,59.0,59.0,29.85,ENE,68,4.0,10.0,99,0.18,,,0.41,,2013-02-26 17:52:00,
2013-02-26 13:02:00,60.0,60.0,29.84,ENE,72,6.0,12.0,99,0.18,,,0.43,,2013-02-26 18:02:00,
2013-02-26 13:12:00,60.0,60.0,29.84,ENE,72,6.0,12.0,99,0.18,,,0.43,,2013-02-26 18:12:00,
2013-02-26 13:21:00,60.0,60.0,29.82,SW,214,4.0,10.0,99,0.17,,,0.46,,2013-02-26 18:21:00,
2013-02-26 13:32:00,61.0,61.0,29.80,SSE,158,4.0,9.0,99,0.13,,,0.47,,2013-02-26 18:32:00,
2013-02-26 13:42:00,61.0,61.0,29.80,SSE,158,4.0,9.0,99,0.13,,,0.47,,2013-02-26 18:42:00,
2013-02-26 13:53:00,62.0,62.0,29.78,NNE,31,4.0,11.0,99,0.09,,,0.50,,2013-02-26 18:53:00,
2013-02-26 14:01:00,62.0,62.0,29.77,ESE,110,6.0,12.0,99,0.07,,,0.50,,2013-02-26 19:01:00,
2013-02-26 14:11:00,62.0,62.0,29.77,ESE,110,6.0,12.0,99,0.07,,,0.50,,2013-02-26 19:11:00,
2013-02-26 14:22:00,62.0,62.0,29.77,East,100,6.0,14.0,99,0.11,,,0.57,,2013-02-26 19:22:00,
2013-02-26 14:32:00,62.0,62.0,29.77,East,86,5.0,15.0,99,0.15,,,0.62,,2013-02-26 19:32:00,
2013-02-26 14:42:00,62.0,62.0,29.77,East,86,5.0,15.0,99,0.15,,,0.62,,2013-02-26 19:42:00,
2013-02-26 14:52:00,62.0,62.0,29.75,WNW,288,7.0,12.0,99,0.17,,,0.67,,2013-02-26 19:52:00,
2013-02-26 15:01:00,63.0,63.0,29.75,WNW,298,7.0,18.0,100,0.19,,,0.70,,2013-02-26 20:01:00,
2013-02-26 15:11:00,63.0,63.0,29.75,WNW,298,7.0,18.0,100,0.19,,,0.70,,2013-02-26 20:11:00,
2013-02-26 15:21:00,63.0,63.0,29.74,SSE,155,4.0,11.0,99,0.15,,,0.72,,2013-02-26 20:21:00,
2013-02-26 15:32:00,63.0,63.0,29.74,NNW,329,6.0,12.0,99,0.11,,,0.73,,2013-02-26 20:32:00,
2013-02-26 15:41:00,63.0,63.0,29.74,NNW,329,6.0,12.0,99,0.11,,,0.73,,2013-02-26 20:41:00,
2013-02-26 15:52:00,63.0,63.0,29.72,NE,37,5.0,9.0,100,0.09,,,0.76,,2013-02-26 20:52:00,
2013-02-26 16:01:00,63.0,63.0,29.72,NE,37,5.0,9.0,100,0.09,,,0.76,,2013-02-26 21:01:00,
2013-02-26 16:11:00,63.0,63.0,29.72,NE,37,5.0,9.0,100,0.09,,,0.76,,2013-02-26 21:11:00,
2013-02-26 16:21:00,64.0,64.0,29.70,North,351,5.0,9.0,100,0.05,,,0.77,,2013-02-26 21:21:00,
2013-02-26 16:31:00,64.0,64.0,29.70,ESE,105,5.0,12.0,100,0.05,,,0.78,,2013-02-26 21:31:00,
2013-02-26 16:41:00,64.0,64.0,29.70,ESE,105,5.0,12.0,100,0.05,,,0.78,,2013-02-26 21:41:00,
2013-02-26 16:51:00,64.0,64.0,29.68,SSE,164,7.0,16.0,100,0.02,,,0.78,,2013-02-26 21:51:00,
2013-02-26 17:01:00,64.0,64.0,29.66,SW,222,6.0,13.0,100,0.01,,,0.78,,2013-02-26 22:01:00,
2013-02-26 17:11:00,64.0,64.0,29.66,East,91,5.0,11.0,100,0.01,,,0.78,,2013-02-26 22:11:00,
2013-02-26 17:21:00,64.0,64.0,29.66,East,91,5.0,11.0,100,0.01,,,0.78,,2013-02-26 22:21:00,
2013-02-26 17:32:00,64.0,64.0,29.65,South,177,4.0,12.0,100,0.00,,,0.78,,2013-02-26 22:32:00,
2013-02-26 17:41:00,64.0,64.0,29.65,South,177,4.0,12.0,100,0.00,,,0.78,,2013-02-26 22:41:00,
2013-02-26 17:52:00,65.0,65.0,29.65,ENE,58,6.0,15.0,100,0.00,,,0.78,,2013-02-26 22:52:00,
2013-02-26 18:01:00,65.0,65.0,29.65,ENE,58,6.0,15.0,100,0.00,,,0.78,,2013-02-26 23:01:00,
2013-02-26 18:11:00,65.0,65.0,29.65,ENE,58,6.0,15.0,100,0.00,,,0.78,,2013-02-26 23:11:00,
2013-02-26 18:21:00,65.0,65.0,29.64,SSE,158,4.0,12.0,100,0.00,,,0.78,,2013-02-26 23:21:00,
2013-02-26 18:32:00,66.0,66.0,29.63,SSE,166,6.0,13.0,99,0.00,,,0.78,,2013-02-26 23:32:00,
2013-02-26 18:42:00,66.0,66.0,29.63,SSE,166,6.0,13.0,99,0.00,,,0.78,,2013-02-26 23:42:00,
2013-02-26 18:52:00,66.0,66.0,29.63,SSW,195,6.0,12.0,99,0.00,,,0.78,,2013-02-26 23:52:00,
2013-02-26 19:01:00,66.0,66.0,29.63,SSW,195,6.0,12.0,99,0.00,,,0.78,,2013-02-27 00:01:00,
2013-02-26 19:11:00,66.0,66.0,29.63,SSW,195,6.0,12.0,99,0.00,,,0.78,,2013-02-27 00:11:00,
2013-02-26 19:22:00,66.0,65.0,29.64,South,178,5.0,13.0,98,0.00,,,0.78,,2013-02-27 00:22:00,
2013-02-26 19:32:00,66.0,65.0,29.64,SE,139,5.0,11.0,98,0.00,,,0.78,,2013-02-27 00:32:00,
2013-02-26 19:42:00,66.0,65.0,29.64,SE,139,5.0,11.0,98,0.00,,,0.78,,2013-02-27 00:42:00,
2013-02-26 19:51:00,66.0,65.0,29.64,SE,139,5.0,11.0,98,0.00,,,0.78,,2013-02-27 00:51:00,
2013-02-26 20:01:00,67.0,66.0,29.62,SSE,161,4.0,15.0,98,0.00,,,0.78,,2013-02-27 01:01:00,
2013-02-26 20:11:00,67.0,66.0,29.62,SSE,161,4.0,15.0,98,0.00,,,0.78,,2013-02-27 01:11:00,
2013-02-26 20:22:00,67.0,66.0,29.62,SSW,193,6.0,15.0,97,0.00,,,0.78,,2013-02-27 01:22:00,
2013-02-26 20:32:00,66.0,65.0,29.62,SSE,152,3.0,13.0,97,0.00,,,0.78,,2013-02-27 01:32:00,
2013-02-26 20:42:00,66.0,65.0,29.62,SSE,152,3.0,13.0,97,0.00,,,0.78,,2013-02-27 01:42:00,
2013-02-26 20:52:00,66.0,65.0,29.62,South,174,3.0,9.0,98,0.03,,,0.81,,2013-02-27 01:52:00,
2013-02-26 21:01:00,66.0,65.0,29.62,SE,124,4.0,10.0,98,0.03,,,0.81,,2013-02-27 02:01:00,
2013-02-26 21:15:00,66.0,65.0,29.62,SE,124,4.0,10.0,98,0.03,,,0.81,,2013-02-27 02:15:00,
2013-02-26 21:23:00,66.0,66.0,29.62,East,84,1.0,6.0,99,0.03,,,0.81,,2013-02-27 02:23:00,
2013-02-26 21:32:00,65.0,65.0,29.61,South,183,2.0,8.0,99,0.03,,,0.81,,2013-02-27 02:32:00,
2013-02-26 21:42:00,65.0,65.0,29.61,South,183,2.0,8.0,99,0.03,,,0.81,,2013-02-27 02:42:00,
2013-02-26 21:52:00,65.0,65.0,29.62,SSW,204,2.0,6.0,99,0.00,,,0.81,,2013-02-27 02:52:00,
2013-02-26 22:02:00,65.0,65.0,29.63,SE,136,3.0,7.0,99,0.00,,,0.81,,2013-02-27 03:02:00,
2013-02-26 22:11:00,63.0,63.0,29.62,ESE,108,1.0,5.0,99,0.00,,,0.81,,2013-02-27 03:11:00,
2013-02-26 22:22:00,63.0,63.0,29.62,ESE,108,1.0,5.0,99,0.00,,,0.81,,2013-02-27 03:22:00,
2013-02-26 22:32:00,63.0,63.0,29.62,SSE,165,1.0,4.0,99,0.00,,,0.81,,2013-02-27 03:32:00,
2013-02-26 22:42:00,63.0,63.0,29.62,SSE,165,1.0,4.0,99,0.00,,,0.81,,2013-02-27 03:42:00,
2013-02-26 22:52:00,62.0,62.0,29.62,NNW,328,1.0,2.0,99,0.00,,,0.81,,2013-02-27 03:52:00,
2013-02-26 23:01:00,62.0,62.0,29.62,SSW,203,1.0,3.0,99,0.00,,,0.81,,2013-02-27 04:01:00,
2013-02-26 23:11:00,62.0,62.0,29.62,SSW,203,1.0,3.0,99,0.00,,,0.81,,2013-02-27 04:11:00,
2013-02-26 23:22:00,62.0,62.0,29.62,NW,309,2.0,6.0,99,0.00,,,0.81,,2013-02-27 04:22:00,
2013-02-26 23:32:00,62.0,62.0,29.61,South,185,1.0,5.0,99,0.00,,,0.81,,2013-02-27 04:32:00,
2013-02-26 23:42:00,62.0,62.0,29.61,South,185,1.0,5.0,99,0.00,,,0.81,,2013-02-27 04:42:00,
2013-02-26 23:52:00,61.0,60.0,29.62,East,101,1.0,4.0,98,0.00,,,0.81,,2013-02-27 04:52:00,